Bennington, VT

5:54 AM EST on December 13, 2019 (GMT -0500)
Morse State

Weather History for KDDH - September, 2019

Change the Weather History Date:

Saturday, September 7, 2019

  Actual Average Record
Temperature  
Mean Temperature 57 °F 62 °F  
Max Temperature 69 °F 74 °F 90 °F (2007)
Min Temperature 45 °F 51 °F 39 °F (2000)
Degree Days  
Heating Degree Days 8 4  
Month to date heating degree days 30 25  
Since 1 July heating degree days 65 97  
Cooling Degree Days 0 1  
Month to date cooling degree days 6 11  
Year to date cooling degree days 357 299  
Growing Degree Days 7 (Base 50)    
Moisture  
Dew Point 48 °F    
Average Humidity 68    
Maximum Humidity 86    
Minimum Humidity 49    
Precipitation  
Precipitation 0.00 in 0.11 in 1.12 in (2011)
Month to date precipitation 1.46 0.72  
Year to date precipitation 28.93 28.26  
Sea Level Pressure  
Sea Level Pressure 29.81 in    
Wind  
Wind Speed 5 mph (WSW)    
Max Wind Speed 13 mph    
Max Gust Speed 18 mph    
Visibility 10 miles    
Events Rain    
T = Trace of Precipitation, MM = Missing Value Source: NWS Daily Summary

Daily Weather History Graph

Daily Weather History Graph

Search for Another Location

Airport or City:

Astronomy

Sep. 07, 2019 Rise Set
Actual Time 6:23 AM EDT 7:17 PM EDT
Civil Twilight 5:54 AM EDT 7:46 PM EDT
Nautical Twilight 5:20 AM EDT 8:20 PM EDT
Astronomical Twilight 4:44 AM EDT 8:56 PM EDT
Moon 3:37 PM EDT (9/7) 12:07 AM EDT (9/7)
Length of Visible Light 13h 51m
Length of Day
12h 53m
Waxing Gibbous, 65% of the Moon is Illuminated
Sep 7
Waxing Gibbous
Sep 14
Full
Sep 21
Last Quarter
Sep 28
New
Oct 5
First Quarter

Hourly Weather History & Observations

Time (EDT) Temp. Windchill Dew Point Humidity Pressure Visibility Wind Dir Wind Speed Gust Speed Precip Events Conditions
12:54 AM 55.9 °F - 44.1 °F 64% 29.85 in 10.0 mi ESE 6.9 mph - 0.00 in Rain Light Rain
1:54 AM 55.9 °F - 44.1 °F 64% 29.84 in 10.0 mi Variable 4.6 mph - 0.00 in   Mostly Cloudy
2:54 AM 55.0 °F - 44.1 °F 67% 29.82 in 10.0 mi Calm Calm - N/A   Mostly Cloudy
3:54 AM 55.0 °F - 44.1 °F 67% 29.80 in 10.0 mi North - - N/A   Overcast
4:54 AM 50.0 °F - 45.0 °F 83% 29.80 in 10.0 mi Calm Calm - N/A   Mostly Cloudy
5:54 AM 48.0 °F - 45.0 °F 89% 29.81 in 10.0 mi Calm Calm - N/A   Clear
6:54 AM 46.0 °F 44.8 °F 43.0 °F 89% 29.82 in 10.0 mi South 3.5 mph - N/A   Clear
7:54 AM 54.0 °F - 48.0 °F 80% 29.82 in 10.0 mi Calm Calm - N/A   Clear
8:54 AM 57.9 °F - 46.0 °F 65% 29.81 in 10.0 mi Calm Calm - N/A   Clear
9:54 AM 61.0 °F - 48.0 °F 62% 29.81 in 10.0 mi Calm Calm - N/A   Clear
10:54 AM 63.0 °F - 48.0 °F 58% 29.80 in 10.0 mi West 9.2 mph - N/A   Clear
11:54 AM 64.9 °F - 46.9 °F 52% 29.79 in 10.0 mi NNW 3.5 mph - N/A   Clear
12:54 PM 66.9 °F - 48.9 °F 52% 29.78 in 10.0 mi NW 6.9 mph - N/A   Clear
1:54 PM 68.0 °F - 48.0 °F 49% 29.77 in 10.0 mi Variable 6.9 mph - N/A   Clear
3:54 PM 66.0 °F - 52.0 °F 60% 29.77 in 10.0 mi WSW 5.8 mph - N/A   Overcast
4:54 PM 66.0 °F - 54.0 °F 65% 29.78 in 10.0 mi WSW 8.1 mph - N/A   Overcast
5:54 PM 64.9 °F - 53.1 °F 65% 29.79 in 10.0 mi WSW 8.1 mph - N/A   Mostly Cloudy
6:54 PM 64.0 °F - 53.1 °F 67% 29.81 in 10.0 mi SW 6.9 mph - N/A   Overcast
7:54 PM 62.1 °F - 53.1 °F 72% 29.81 in 10.0 mi WSW 6.9 mph - N/A   Partly Cloudy
8:54 PM 61.0 °F - 50.0 °F 67% 29.84 in 10.0 mi WSW 4.6 mph - N/A   Mostly Cloudy
9:54 PM 60.1 °F - 51.1 °F 72% 29.85 in 10.0 mi SW 6.9 mph - N/A   Mostly Cloudy
10:54 PM 61.0 °F - 51.1 °F 70% 29.85 in 10.0 mi SW 9.2 mph - N/A   Overcast
11:54 PM 59.0 °F - 51.1 °F 75% 29.85 in 10.0 mi SW 8.1 mph - N/A   Clear